Regional Weather Roundup
Issued by NWS

Home | Current Version | Previous Version | Graphics & Text | Print | Product List | Glossary On
Versions: 1 2 3 4 5 6 7 8 9 10 11 12 13 14 15 16 17 18 19 20 21 22 23 24 25 26 27 28 29 30 31 32 33 34 35 36 37 38 39 40 41 42 43 44 45 46 47 48 49 50
000
ASUS43 KIND 151509
RWRIN

WEATHER ROUNDUP FOR INDIANA
NATIONAL WEATHER SERVICE INDIANAPOLIS IN
1100 AM EDT MON SEP 15 2014

NOTE: "FAIR" INDICATES FEW OR NO CLOUDS BELOW 12,000 FEET WITH NO
SIGNIFICANT WEATHER AND/OR OBSTRUCTIONS TO VISIBILITY.

* - STATION DOES NOT REPORT WEATHER SUCH AS PRECIPITATION OR FOG.

+ - STATION NOT QUALITY CONTROLLED BY THE NATIONAL WEATHER SERVICE.
    USE DATA WITH CAUTION...ESPECIALLY DEWPOINT AND RELATIVE
    HUMIDITY OBSERVATIONS.

INZ001>003-010>013-019-020-151600-
NORTHWEST INDIANA

CITY           SKY/WX    TMP DP  RH WIND       PRES   REMARKS
GARY /AIRPORT/ PTSUNNY   57  52  82 S5        30.14R
KNOX *+        CLOUDY    53  50  88 S5        30.16R
LA PORTE +     CLOUDY    55  51  89 S8        30.14F
MICHIGAN CITY+ CLOUDY    57  52  82 SW5       30.15F
MONTICELLO +   LGT RAIN  54  52  94 E7        30.12F
RENSSELAER +   CLOUDY    55  54  94 CALM      30.15R
VALPARAISO     CLOUDY    55  51  86 S5        30.14S

$$

LMZ046-743>745-151600-
SOUTHERN LAKE MICHIGAN

STATION/POSITION TIME  TEMP WIND        PRES
                       AIR  DIR/SP/G
                 (UTC) (F)  (DEG/KT/KT) (MB)
MICHIGAN CITY    1500   56  150/  9/ 15   N/A

$$

INZ004-005-014>016-021>024-151600-
NORTH CENTRAL INDIANA

CITY           SKY/WX    TMP DP  RH WIND       PRES   REMARKS
ELKHART        CLOUDY    55  50  82 S3        30.16F
GOSHEN         LGT RAIN  56  51  84 CALM      30.15F
LOGANSPORT +   LGT RAIN  52  50  93 SE10      30.14F
PERU/GRISSOM   LGT RAIN  57  56  97 CALM      30.20R
ROCHESTER +    LGT RAIN  54  52  94 CALM      30.15F
SOUTH BEND     CLOUDY    57  51  80 S9        30.16S
WARSAW +       RAIN      52  50  93 SE7       30.12F

$$

INZ006>009-017-018-025>027-151600-
NORTHEAST INDIANA

CITY           SKY/WX    TMP DP  RH WIND       PRES   REMARKS
ANGOLA *+      CLOUDY    54  50  87 S5        30.18S
AUBURN +       LGT RAIN  54  50  87 W3        30.23R
FORT WAYNE     CLOUDY    56  52  86 NW6       30.23R
HUNTINGTON +   CLOUDY    56  53  91 NW5       30.23R

$$

INZ028-029-035-036-043>045-051>053-151600-
WEST CENTRAL INDIANA

CITY           SKY/WX    TMP DP  RH WIND       PRES   REMARKS
GREENCASTLE +  CLOUDY    61  52  72 CALM      30.19S
LAFAYETTE      LGT RAIN  55  52  89 SE5       30.15F
TERRE HAUTE    CLOUDY    59  54  83 CALM      30.18S

$$

INZ030>032-037>040-046>048-054>057-064-065-151600-
CENTRAL INDIANA

CITY           SKY/WX    TMP DP  RH WIND       PRES   REMARKS
ANDERSON       MOSUNNY   64  48  55 CALM      30.21F
CP ATTERBURY + PTSUNNY   63  54  72 CALM      30.19F
COLUMBUS       SUNNY     63  54  72 CALM      30.19F
FRANKFORT +    PTSUNNY   59  55  84 CALM      30.20F
INDIANAPOLIS   MOSUNNY   62  51  67 E5        30.19F
-EAGLE CREEK   MOSUNNY   64  49  57 S5        30.18F
KOKOMO *+      CLOUDY    57  52  82 N3        30.21S THUNDER
MARION +       CLOUDY    59  51  75 NW7       30.23R
MT COMFORT *+  MOSUNNY   66  43  42 SE3       30.20S
SHELBYVILLE    MOSUNNY   65  52  62 CALM      30.19F
ZIONSVILLE +   PTSUNNY   63  49  61 CALM      30.21R

$$

INZ033-034-041-042-049-050-058-059-151600-
EAST CENTRAL INDIANA

CITY           SKY/WX    TMP DP  RH WIND       PRES   REMARKS
MUNCIE         MOSUNNY   64  46  52 SW6       30.19F

$$

INZ060-061-067>069-081>083-085>088-151600-
SOUTHWEST INDIANA

CITY           SKY/WX    TMP DP  RH WIND       PRES   REMARKS
EVANSVILLE     PTSUNNY   65  53  65 S7        30.17F
WASHINGTON +   CLOUDY    64  54  69 S5        30.17F

$$

INZ062-063-066-070>080-084-089>092-151600-
SOUTH CENTRAL AND SOUTHEAST INDIANA

CITY           SKY/WX    TMP DP  RH WIND       PRES   REMARKS
BEDFORD +      PTSUNNY   64  52  63 SE3       30.18
BLOOMINGTON    PTSUNNY   61  50  67 SE8       30.18F
NORTH VERNON + PTSUNNY   63  52  67 CALM      30.20

$$



USA.gov is the U.S. government's official web portal to all federal, state and local government web resources and services.